Tracking 18856 objects as of 11-Dec-2017
HD Live streaming from Space Station
objects crossing your sky now

SL-16 DEB

Track SL-16 DEB now!
10-day predictions


NORAD ID: 36031
Int'l Code: 1996-051N
Perigee: 745.1 km
Apogee: 770.5 km
Inclination: 70.9 °
Period: 99.8 minutes
Semi major axis: 7128 km
RCS: 0.0057 m2 (small)
Launch date: September 4, 1996
Source: Commonwealth of Independent States (former USSR) (CIS)
Launch site: TYURATAM MISSILE AND SPACE COMPLEX (TTMTR)

Note: This is SATELLITE DEBRIS
aabbcc
Your satellite tracking list
Your tracking list is empty




NASA's NSSDC Master Catalog

Two Line Element Set (TLE):
1 36031U 96051N   17344.85150208 +.00002123 +00000-0 +65632-3 0  9995
2 36031 070.8521 267.2861 0017821 208.6484 208.3108 14.42368973424673
Source of the keplerian elements: AFSPC